RADUGA-1M 1 [-]

Last updated on Nov. 11, 2019, 4:17 a.m. UTC

1 32373U 07058A   19314.81145189 -.00000213  00000-0  00000-0 0  9990
2 32373   4.8580  69.6775 0002975 250.9278 324.1044  0.99397038 28434
UTC
Height (km)
Latitude
Longitude
Inclination
Orbital Period
UTC large
Height (km)
Speed (km/s)
/
Latitude / Longitude
Inclination (degrees)
Orbital Period (minutes)
Azimuth
Elevation
Range (km)
Doppler Factor
iOS Compass Heading
iOS Angle

Next 30 passes for location: Hong Kong

Rise time Rise Azimuth (degrees) Set time Set Azimuth (degrees) Duration Max altitude (degrees)

No matching passes for this satellites